Location: Newark
(48.4472°N, 1.4892°E)
Time: 15:39:13
(UTC+00:00)

Transit 4A - Pass Details

Date: 24 November 2019
Orbit: 870 x 975 km, 66.8° (Epoch: 08 December)

Event Time Altitude Azimuth Distance (km) Brightness Sun altitude
Exits shadow 04:22:01 31° 355° (N) 1,511 8.9 -28.1°
Maximum altitude 04:24:19 45° 45° (NE) 1,186 8.7 -27.7°
Drops below altitude 10° 04:29:53 10° 118° (ESE) 2,519 11.0 -26.8°
Sets 04:32:27 0° 124° (SE) 3,450 11.7 -26.3°
